Regional Weather Roundup
Issued by NWS

Home | Current Version | Previous Version | Text Only | Print | Product List | Glossary On
Versions: 1 2 3 4 5 6 7 8 9 10 11 12 13 14 15 16 17 18 19 20 21 22 23 24 25 26 27
000
ASUS45 KBOI 280510
RWRID

IDAHO REGIONAL WEATHER ROUNDUP
NATIONAL WEATHER SERVICE BOISE ID
1100 PM MDT TUE JUN 27 2017

NOTE: "FAIR" INDICATES FEW OR NO CLOUDS BELOW 12000 FEET
WITH NO SIGNIFICANT WEATHER AND/OR OBSTRUCTIONS TO VISIBILITY

IDZ012-014-280600-
SOUTHWEST IDAHO


CITY           SKY/WX    TMP DP  RH WIND       PRES   REMARKS
BOISE          MOCLDY    78  43  28 CALM      29.76R
CALDWELL       PTCLDY    74  52  46 NW8       29.76R
MOUNTAIN HOME  TSTM      75  50  41 S15G36    29.84R
$$

IDZ016-017-280600-
SOUTHCENTRAL IDAHO


CITY           SKY/WX    TMP DP  RH WIND       PRES   REMARKS
BURLEY         PTCLDY    64  53  67 SE3       29.87R
JEROME         PTCLDY    64  46  52 NE8       29.87R
TWIN FALLS     PTCLDY    60  50  69 SE9       29.87S
$$

IDZ019>023-280600-
SOUTHEAST IDAHO


CITY           SKY/WX    TMP DP  RH WIND       PRES   REMARKS
IDAHO FALLS    CLEAR     61  48  62 N14       29.94R
POCATELLO      CLEAR     69  43  38 W13       29.91R
REXBURG        MOCLDY    57  48  72 NE10G22   29.96R
$$

IDZ006-010-011-018-031-032-280600-
CENTRAL IDAHO MOUNTAINS


CITY           SKY/WX    TMP DP  RH WIND       PRES   REMARKS
MCCALL         CLOUDY    62  44  51 NE3       29.95S
HAILEY         CLEAR     64  36  34 W8        29.96R
STANLEY          N/A     52  37  56 CALM      30.04R
SALMON         CLOUDY    61  50  67 S3        29.95R
CHALLIS        LGT RAIN  58  48  69 VRB3      30.01R
$$

IDZ002-004-006-007-026-280600-
NORTHERN IDAHO


CITY           SKY/WX    TMP DP  RH WIND       PRES   REMARKS
LEWISTON       MOCLDY    71  44  37 S7        29.79R
LOWELL           N/A     64  54  69 CALM      29.82R
COEUR D`ALENE  PTCLDY    66  49  54 CALM      29.82R
MULLAN PASS    PTCLDY    52  36  54 VRB5      29.98R
$$




USA.gov is the U.S. government's official web portal to all federal, state and local government web resources and services.